Flag for Brazil Weather past 2 weeks in Rio Grande, Rio Grande do Sul, Brazil

Now
57 °F

Clear.


Feels Like: 56 °F
Forecast: 53 / 61 °F
Wind: 6 mph from Northwest

Location: Pelotas Airport

Current Time: Jun 30, 2015 at 11:22:56 PM

Latest Report: Jun 30, 2015 at 11:00 PM


Visibility: 10 mi

Pressure: 29.98 "Hg

Humidity: 100%

Dew point: 57 °F

Location of Rio GrandeLocation

Historic Weather in Rio Grande — Graph

°F

Rio Grande temperature yesterday

Maximum temperature yesterday: 75 °F (at 1:00 PM)
Minimum temperature yesterday: 54 °F (at 6:00 AM)
Average temperature yesterday: 65 °F

Past Weeks' High & Low Weather Summary

 TemperatureHumidityPressure
High77 °F (Jun 27, 2:00 PM)100% (Jun 15, 10:00 PM)30.51 "Hg (Jun 15, 10:00 PM)
Low34 °F (Jun 17, 6:00 AM)32% (Jun 16, 3:00 PM)29.80 "Hg (Jun 30, 6:00 AM)
Average56 °F84%30.21 "Hg
* Reported Jun 15 10:00 PM — Jun 30 10:00 PM, Rio Grande, Weather by CustomWeather, © 2015

Note: Actual official high and low records may vary slightly from our data, if they occured in-between our weather recording intervals... More about our weather records

Advertising

Rio Grande weather history for previous 24 hours

 ConditionsComfort  
Time TempWeatherWind HumidityBarometerVisibility
10:00 PM
Tue, Jun 30
57 °FClear.6 mph100%29.95 "Hg10 mi
9:00 PM57 °FClear.5 mph100%29.92 "Hg10 mi
8:00 PM59 °FClear.3 mph100%29.92 "Hg10 mi
7:00 PM61 °FPassing clouds.5 mph100%29.89 "HgN/A
6:00 PM63 °FPassing clouds.7 mph100%29.86 "HgN/A
5:00 PM66 °FPassing clouds.7 mph100%29.86 "HgN/A
4:00 PM68 °FPartly sunny.12 mph88%29.83 "HgN/A
3:00 PM72 °FPartly sunny.10 mph73%29.83 "HgN/A
2:00 PM72 °FScattered clouds.16 mph73%29.83 "HgN/A
1:00 PM70 °FScattered clouds.9 mph88%29.83 "HgN/A
12:00 PM68 °FPartly sunny.14 mph94%29.83 "HgN/A
11:00 AM66 °FSunny.12 mph100%29.83 "Hg10 mi
10:00 AM63 °FPartly sunny.6 mph100%29.83 "HgN/A
9:00 AM61 °FPartly sunny.2 mph100%29.83 "HgN/A
8:00 AM61 °FPartly sunny.6 mph100%29.80 "Hg5 mi
7:00 AM61 °FLight rain. Fog.3 mph100%29.80 "Hg3 mi
6:00 AM61 °FLight rain. Fog.5 mph100%29.80 "Hg2 mi
11:00 PM
Mon, Jun 29
61 °FOvercast.3 mph100%29.89 "HgN/A
Weather by CustomWeather, © 2015

See weather overviewHow to use our weather pages